| time (UTC) | temp F | wind direction | speed knots | gust knots | rain 1hr in | rain 24hr in | rain mn in | humidity % | barometer mb |
| 20260507071457 | 56 | 10 | 1.7 | 3.5 | 0.00 | 0.00 | 0.00 | 99 | 1005.0 |
| 20260507070954 | 56 | 317 | 1.7 | 5.2 | 0.00 | 0.00 | 0.00 | 99 | 1005.4 |
| 20260507070451 | 56 | 286 | 3.5 | 5.2 | 0.00 | 0.00 | 0.00 | 99 | 1005.3 |
| 20260507065948 | 57 | 202 | 0.0 | 2.6 | 0.00 | 0.00 | 0.00 | 99 | 1005.2 |
| 20260507065444 | 57 | 74 | 0.0 | 1.7 | 0.00 | 0.00 | 0.00 | 99 | 1005.0 |
| 20260507064942 | 57 | 181 | 0.0 | 1.7 | 0.00 | 0.00 | 0.00 | 99 | 1005.1 |
| 20260507064440 | 57 | 352 | 3.5 | 3.5 | 0.00 | 0.00 | 0.00 | 99 | 1005.0 |
| 20260507063937 | 57 | 40 | 1.7 | 4.3 | 0.00 | 0.00 | 0.00 | 99 | 1005.1 |
| 20260507063434 | 57 | 262 | 1.7 | 1.7 | 0.00 | 0.00 | 0.00 | 99 | 1005.3 |
| 20260507062931 | 57 | 174 | 1.7 | 1.7 | 0.00 | 0.00 | 0.00 | 99 | 1005.2 |
| 20260507062429 | 57 | 91 | 0.0 | 1.7 | 0.00 | 0.00 | 0.00 | 99 | 1005.2 |
| 20260507061925 | 57 | 49 | 1.7 | 2.6 | 0.00 | 0.00 | 0.00 | 99 | 1005.3 |
| 20260507061424 | 57 | 257 | 0.0 | 3.5 | 0.00 | 0.00 | 0.00 | 99 | 1005.4 |
| 20260507060922 | 57 | 4 | 1.7 | 1.7 | 0.00 | 0.00 | 0.00 | 99 | 1005.4 |
| 20260507060418 | 57 | 194 | 2.6 | 4.3 | 0.00 | 0.00 | 0.00 | 99 | 1005.5 |
| 20260507055915 | 57 | 228 | 4.3 | 4.3 | 0.00 | 0.00 | 0.00 | 99 | 1005.8 |
| 20260507055410 | 57 | 187 | 1.7 | 4.3 | 0.00 | 0.00 | 0.00 | 99 | 1005.4 |
| 20260507054907 | 57 | 103 | 1.7 | 5.2 | 0.00 | 0.00 | 0.00 | 99 | 1005.3 |
| 20260507054403 | 57 | 289 | 0.0 | 4.3 | 0.00 | 0.00 | 0.00 | 99 | 1005.5 |
| 20260507053901 | 57 | 62 | 1.7 | 3.5 | 0.00 | 0.00 | 0.00 | 99 | 1005.9 |
| 20260507053358 | 57 | 176 | 2.6 | 3.5 | 0.00 | 0.00 | 0.00 | 99 | 1005.7 |
| 20260507052857 | 57 | 191 | 0.0 | 2.6 | 0.00 | 0.00 | 0.00 | 99 | 1005.6 |
| 20260507052354 | 57 | 102 | 0.0 | 2.6 | 0.00 | 0.00 | 0.00 | 99 | 1005.6 |
| 20260507051851 | 57 | 155 | 1.7 | 4.3 | 0.00 | 0.00 | 0.00 | 99 | 1005.5 |
| 20260507051349 | 57 | 77 | 0.0 | 4.3 | 0.00 | 0.00 | 0.00 | 99 | 1005.6 |
| 20260507050845 | 57 | 162 | 1.7 | 3.5 | 0.00 | 0.00 | 0.00 | 99 | 1005.6 |
| 20260507050342 | 57 | 314 | 1.7 | 5.2 | 0.00 | 0.00 | 0.00 | 99 | 1005.8 |
| 20260507045838 | 57 | 197 | 0.0 | 3.5 | 0.00 | 0.00 | 0.00 | 99 | 1005.9 |
| 20260507045335 | 57 | 232 | 0.0 | 3.5 | 0.00 | 0.00 | 0.00 | 99 | 1006.0 |
| 20260507044832 | 57 | 152 | 2.6 | 7.0 | 0.00 | 0.00 | 0.00 | 99 | 1005.9 |
| 20260507044329 | 57 | 238 | 1.7 | 5.2 | 0.00 | 0.00 | 0.00 | 99 | 1005.8 |
| 20260507043825 | 57 | 107 | 2.6 | 5.2 | 0.00 | 0.00 | 0.00 | 99 | 1005.7 |
| 20260507043321 | 57 | 6 | 0.0 | 7.0 | 0.00 | 0.00 | 0.00 | 99 | 1005.7 |
| 20260507042818 | 57 | 213 | 1.7 | 7.0 | 0.00 | 0.00 | 0.00 | 99 | 1005.7 |
| 20260507042314 | 57 | 197 | 0.0 | 5.2 | 0.00 | 0.00 | 0.00 | 99 | 1005.8 |
| 20260507041811 | 57 | 254 | 3.5 | 4.3 | 0.00 | 0.00 | 0.00 | 99 | 1005.9 |
| 20260507041307 | 57 | 162 | 1.7 | 6.1 | 0.00 | 0.00 | 0.00 | 99 | 1005.8 |
| 20260507040805 | 56 | 217 | 1.7 | 5.2 | 0.00 | 0.00 | 0.00 | 99 | 1005.9 |
| 20260507040300 | 56 | 170 | 3.5 | 7.8 | 0.00 | 0.00 | 0.00 | 99 | 1006.1 |
| 20260507035756 | 56 | 277 | 0.0 | 4.3 | 0.00 | 0.07 | 0.07 | 99 | 1006.0 |
| 20260507035252 | 56 | 123 | 0.0 | 6.1 | 0.00 | 0.07 | 0.07 | 99 | 1006.0 |
| 20260507034750 | 56 | 106 | 4.3 | 6.1 | 0.00 | 0.07 | 0.07 | 99 | 1006.2 |
| 20260507034246 | 56 | 273 | 4.3 | 9.6 | 0.00 | 0.07 | 0.07 | 99 | 1006.4 |
| 20260507033745 | 56 | 177 | 3.5 | 7.0 | 0.00 | 0.07 | 0.07 | 99 | 1006.2 |
| 20260507033242 | 56 | 245 | 6.1 | 7.0 | 0.00 | 0.07 | 0.07 | 99 | 1006.0 |
| 20260507032739 | 56 | 223 | 5.2 | 7.8 | 0.00 | 0.07 | 0.07 | 99 | 1006.0 |
| 20260507032235 | 56 | 239 | 6.1 | 7.0 | 0.00 | 0.07 | 0.07 | 99 | 1006.0 |
| 20260507031732 | 56 | 171 | 5.2 | 7.8 | 0.00 | 0.07 | 0.07 | 99 | 1005.9 |
| 20260507031229 | 56 | 200 | 5.2 | 19.1 | 0.00 | 0.07 | 0.07 | 99 | 1005.7 |
| 20260507030725 | 56 | 273 | 3.5 | 7.8 | 0.00 | 0.07 | 0.07 | 99 | 1005.7 |
| 20260507030223 | 56 | 321 | 1.7 | 12.2 | 0.00 | 0.07 | 0.07 | 99 | 1005.7 |
| 20260507025720 | 56 | 183 | 3.5 | 7.8 | 0.00 | 0.07 | 0.07 | 99 | 1005.7 |
| 20260507025217 | 56 | 214 | 3.5 | 5.2 | 0.00 | 0.07 | 0.07 | 99 | 1005.5 |
| 20260507024715 | 56 | 128 | 1.7 | 7.0 | 0.00 | 0.07 | 0.07 | 99 | 1005.5 |
| 20260507024212 | 56 | 286 | 1.7 | 6.1 | 0.00 | 0.07 | 0.07 | 99 | 1005.5 |
| 20260507023707 | 56 | 185 | 3.5 | 10.4 | 0.00 | 0.07 | 0.07 | 99 | 1005.6 |
| 20260507023205 | 56 | 125 | 6.1 | 12.2 | 0.00 | 0.07 | 0.07 | 99 | 1005.6 |
| 20260507022702 | 56 | 218 | 7.0 | 7.0 | 0.00 | 0.07 | 0.07 | 99 | 1005.6 |
| 20260507022157 | 56 | 191 | 8.7 | 11.3 | 0.00 | 0.07 | 0.07 | 99 | 1005.5 |
| 20260507021654 | 56 | 47 | 0.0 | 9.6 | 0.00 | 0.07 | 0.07 | 99 | 1005.4 |
| 20260507021149 | 56 | 234 | 4.3 | 10.4 | 0.00 | 0.07 | 0.07 | 99 | 1005.8 |
| 20260507020648 | 56 | 222 | 6.1 | 6.1 | 0.00 | 0.07 | 0.07 | 99 | 1005.9 |
| 20260507020144 | 56 | 134 | 1.7 | 7.8 | 0.00 | 0.07 | 0.07 | 99 | 1005.9 |
| 20260507015642 | 56 | 127 | 3.5 | 7.0 | 0.00 | 0.07 | 0.07 | 99 | 1006.1 |
| 20260507015139 | 56 | 196 | 2.6 | 6.1 | 0.00 | 0.07 | 0.07 | 99 | 1006.1 |
| 20260507014636 | 56 | 138 | 7.8 | 13.9 | 0.00 | 0.07 | 0.07 | 99 | 1006.1 |
| 20260507014132 | 56 | 153 | 4.3 | 13.0 | 0.00 | 0.07 | 0.07 | 99 | 1006.2 |
| 20260507013629 | 56 | 121 | 4.3 | 13.0 | 0.00 | 0.07 | 0.07 | 99 | 1006.2 |
| 20260507013126 | 56 | 168 | 5.2 | 11.3 | 0.00 | 0.07 | 0.07 | 99 | 1006.1 |
| 20260507012623 | 56 | 280 | 0.0 | 11.3 | 0.00 | 0.07 | 0.07 | 99 | 1006.2 |
| 20260507012118 | 56 | 147 | 5.2 | 13.0 | 0.00 | 0.07 | 0.07 | 99 | 1006.2 |
| 20260507011617 | 56 | 164 | 4.3 | 10.4 | 0.00 | 0.07 | 0.07 | 99 | 1006.3 |
| 20260507011113 | 56 | 125 | 3.5 | 13.0 | 0.00 | 0.07 | 0.07 | 99 | 1006.3 |
| 20260507010608 | 56 | 275 | 3.5 | 10.4 | 0.00 | 0.07 | 0.07 | 99 | 1006.3 |
| 20260507010104 | 56 | 168 | 1.7 | 9.6 | 0.00 | 0.07 | 0.07 | 99 | 1006.2 |
| 20260507005601 | 57 | 230 | 7.0 | 7.8 | 0.00 | 0.07 | 0.07 | 99 | 1006.4 |
| 20260507005057 | 57 | 114 | 10.4 | 13.0 | 0.00 | 0.07 | 0.07 | 99 | 1006.4 |
| 20260507004554 | 57 | 154 | 6.1 | 8.7 | 0.00 | 0.07 | 0.07 | 99 | 1006.2 |
| 20260507004052 | 57 | 124 | 6.1 | 7.8 | 0.00 | 0.07 | 0.07 | 99 | 1006.4 |
| 20260507003548 | 57 | 106 | 7.8 | 8.7 | 0.00 | 0.07 | 0.07 | 99 | 1006.4 |
| 20260507003043 | 57 | 151 | 6.1 | 6.1 | 0.00 | 0.07 | 0.07 | 99 | 1006.3 |
| 20260507002540 | 57 | 141 | 4.3 | 7.0 | 0.02 | 0.07 | 0.07 | 99 | 1006.4 |
| 20260507002036 | 57 | 199 | 12.2 | 12.2 | 0.05 | 0.07 | 0.07 | 99 | 1006.2 |
| 20260507001532 | 57 | 249 | 4.3 | 9.6 | 0.05 | 0.06 | 0.06 | 99 | 1006.2 |
| 20260507001030 | 57 | 157 | 5.2 | 9.6 | 0.07 | 0.06 | 0.06 | 99 | 1006.3 |
| 20260507000526 | 57 | 211 | 6.1 | 7.8 | 0.05 | 0.06 | 0.06 | 99 | 1006.1 |
| 20260507000022 | 57 | 231 | 7.8 | 13.0 | 0.00 | 0.05 | 0.05 | 99 | 1006.3 |
| 20260506235519 | 57 | 229 | 3.5 | 17.4 | 0.00 | 0.05 | 0.05 | 99 | 1006.2 |
| 20260506235015 | 57 | 202 | 7.0 | 7.8 | 0.00 | 0.05 | 0.05 | 99 | 1006.1 |
| 20260506234513 | 57 | 121 | 5.2 | 7.8 | 0.00 | 0.05 | 0.05 | 99 | 1006.3 |
| 20260506234010 | 57 | 135 | 3.5 | 7.0 | 0.00 | 0.05 | 0.05 | 99 | 1006.2 |
| 20260506233506 | 57 | 150 | 10.4 | 16.5 | 0.00 | 0.05 | 0.05 | 99 | 1006.3 |
| 20260506233003 | 57 | 128 | 6.1 | 7.8 | 0.00 | 0.05 | 0.05 | 99 | 1006.3 |
| 20260506232459 | 57 | 165 | 5.2 | 13.9 | 0.02 | 0.05 | 0.05 | 99 | 1006.4 |
| 20260506231955 | 57 | 81 | 7.8 | 15.6 | 0.02 | 0.05 | 0.05 | 99 | 1006.3 |
| 20260506231452 | 57 | 163 | 7.8 | 16.5 | 0.00 | 0.05 | 0.05 | 99 | 1006.4 |
| 20260506230950 | 57 | 140 | 3.5 | 10.4 | 0.00 | 0.05 | 0.05 | 99 | 1006.4 |
| 20260506230446 | 57 | 139 | 4.3 | 13.0 | 0.00 | 0.05 | 0.05 | 99 | 1006.3 |
| 20260506225942 | 57 | 197 | 1.7 | 4.3 | 0.02 | 0.05 | 0.05 | 99 | 1006.3 |
| 20260506225440 | 57 | 233 | 3.5 | 9.6 | 0.02 | 0.05 | 0.05 | 99 | 1006.3 |
| 20260506224937 | 57 | 114 | 3.5 | 12.2 | 0.02 | 0.04 | 0.04 | 99 | 1006.4 |
| 20260506224434 | 57 | 233 | 4.3 | 7.8 | 0.05 | 0.04 | 0.04 | 99 | 1006.2 |
| 20260506223930 | 57 | 94 | 7.0 | 9.6 | 0.05 | 0.04 | 0.04 | 99 | 1006.5 |
| 20260506223426 | 58 | 146 | 7.0 | 12.2 | 0.02 | 0.03 | 0.03 | 98 | 1006.9 |
| 20260506222923 | 58 | 177 | 1.7 | 10.4 | 0.02 | 0.03 | 0.03 | 98 | 1006.5 |
| 20260506222420 | 58 | 184 | 13.0 | 14.8 | 0.05 | 0.03 | 0.03 | 97 | 1006.8 |
| 20260506221917 | 58 | 213 | 8.7 | 13.0 | 0.02 | 0.02 | 0.02 | 97 | 1006.6 |
| 20260506221414 | 58 | 111 | 5.2 | 7.8 | 0.00 | 0.02 | 0.02 | 96 | 1006.8 |
| 20260506220912 | 59 | 164 | 7.8 | 15.6 | 0.00 | 0.02 | 0.02 | 96 | 1006.8 |
| 20260506220407 | 59 | 132 | 3.5 | 13.0 | 0.00 | 0.02 | 0.02 | 95 | 1006.8 |
| 20260506215904 | 59 | 171 | 13.0 | 14.8 | 0.00 | 0.02 | 0.02 | 96 | 1006.7 |
| 20260506215400 | 59 | 137 | 7.0 | 17.4 | 0.00 | 0.02 | 0.02 | 96 | 1007.0 |
| 20260506214856 | 59 | 171 | 3.5 | 13.0 | 0.00 | 0.02 | 0.02 | 96 | 1006.9 |
| 20260506214352 | 59 | 257 | 6.1 | 13.9 | 0.00 | 0.02 | 0.02 | 95 | 1006.7 |
| 20260506213851 | 59 | 202 | 12.2 | 14.8 | 0.00 | 0.02 | 0.02 | 95 | 1006.8 |
| 20260506213348 | 59 | 127 | 9.6 | 18.2 | 0.00 | 0.02 | 0.02 | 94 | 1007.1 |
| 20260506212845 | 60 | 161 | 5.2 | 14.8 | 0.00 | 0.02 | 0.02 | 94 | 1006.9 |
| 20260506212340 | 60 | 146 | 9.6 | 13.9 | 0.00 | 0.02 | 0.02 | 93 | 1006.8 |
| 20260506211836 | 60 | 176 | 6.1 | 13.9 | 0.00 | 0.02 | 0.02 | 93 | 1007.1 |
| 20260506211332 | 60 | 150 | 4.3 | 13.0 | 0.00 | 0.02 | 0.02 | 93 | 1007.1 |
| 20260506210829 | 60 | 150 | 6.1 | 13.0 | 0.00 | 0.02 | 0.02 | 93 | 1006.9 |
| 20260506210326 | 60 | 160 | 9.6 | 15.6 | 0.00 | 0.02 | 0.02 | 93 | 1007.0 |
| 20260506205823 | 60 | 168 | 2.6 | 13.0 | 0.00 | 0.02 | 0.02 | 94 | 1007.2 |
| 20260506205319 | 60 | 155 | 3.5 | 12.2 | 0.00 | 0.02 | 0.02 | 93 | 1007.3 |
| 20260506204816 | 59 | 281 | 4.3 | 10.4 | 0.00 | 0.02 | 0.02 | 93 | 1007.1 |
| 20260506204314 | 59 | 195 | 4.3 | 16.5 | 0.00 | 0.02 | 0.02 | 94 | 1007.2 |
| 20260506203811 | 59 | 190 | 7.8 | 14.8 | 0.00 | 0.02 | 0.02 | 95 | 1007.1 |
| 20260506203309 | 59 | 147 | 6.1 | 7.8 | 0.02 | 0.02 | 0.02 | 95 | 1007.4 |
| 20260506202805 | 59 | 211 | 5.2 | 20.9 | 0.00 | 0.02 | 0.02 | 95 | 1007.1 |
| 20260506202305 | 59 | 164 | 5.2 | 9.6 | 0.02 | 0.02 | 0.02 | 94 | 1007.3 |
| 20260506201758 | 60 | 128 | 6.1 | 13.0 | 0.02 | 0.02 | 0.02 | 94 | 1007.4 |
| 20260506201255 | 60 | 181 | 2.6 | 10.4 | 0.02 | 0.01 | 0.01 | 92 | 1007.2 |
| 20260506200753 | 60 | 145 | 7.8 | 13.0 | 0.05 | 0.01 | 0.01 | 91 | 1007.4 |
| 20260506200249 | 60 | 164 | 5.2 | 12.2 | 0.05 | 0.01 | 0.01 | 90 | 1007.5 |
| 20260506195745 | 61 | 194 | 5.2 | 22.6 | 0.02 | 0.00 | 0.00 | 88 | 1007.6 |
| 20260506195242 | 61 | 210 | 3.5 | 17.4 | 0.00 | 0.00 | 0.00 | 86 | 1007.7 |
| 20260506194739 | 62 | 125 | 13.9 | 19.1 | 0.00 | 0.00 | 0.00 | 85 | 1007.7 |
| 20260506194235 | 62 | 108 | 6.1 | 16.5 | 0.00 | 0.00 | 0.00 | 84 | 1007.7 |
| 20260506193734 | 63 | 198 | 7.8 | 23.5 | 0.00 | 0.00 | 0.00 | 81 | 1007.6 |
| 20260506193230 | 63 | 150 | 5.2 | 7.8 | 0.00 | 0.00 | 0.00 | 81 | 1007.6 |
| 20260506192726 | 63 | 147 | 7.0 | 18.2 | 0.00 | 0.00 | 0.00 | 80 | 1007.6 |
| 20260506192223 | 63 | 132 | 7.8 | 15.6 | 0.00 | 0.00 | 0.00 | 80 | 1007.7 |
| 20260506191720 | 64 | 212 | 7.8 | 11.3 | 0.00 | 0.00 | 0.00 | 80 | 1007.7 |
| 20260506191216 | 64 | 160 | 3.5 | 24.3 | 0.00 | 0.00 | 0.00 | 80 | 1007.8 |
| 20260506190714 | 64 | 100 | 4.3 | 13.9 | 0.00 | 0.00 | 0.00 | 80 | 1007.6 |
| 20260506190210 | 64 | 201 | 11.3 | 25.2 | 0.00 | 0.00 | 0.00 | 80 | 1007.7 |
| 20260506185707 | 64 | 124 | 3.5 | 23.5 | 0.00 | 0.00 | 0.00 | 79 | 1007.4 |
| 20260506185203 | 64 | 178 | 4.3 | 18.2 | 0.00 | 0.00 | 0.00 | 79 | 1008.1 |
| 20260506184701 | 64 | 189 | 5.2 | 22.6 | 0.00 | 0.00 | 0.00 | 78 | 1007.6 |
| 20260506184158 | 65 | 151 | 4.3 | 22.6 | 0.00 | 0.00 | 0.00 | 77 | 1007.9 |
| 20260506183655 | 65 | 175 | 4.3 | 16.5 | 0.00 | 0.00 | 0.00 | 77 | 1007.8 |
| 20260506183151 | 65 | 87 | 3.5 | 22.6 | 0.00 | 0.00 | 0.00 | 76 | 1007.8 |
| 20260506182649 | 65 | 217 | 9.6 | 16.5 | 0.00 | 0.00 | 0.00 | 76 | 1008.0 |
| 20260506182145 | 65 | 150 | 10.4 | 12.2 | 0.00 | 0.00 | 0.00 | 76 | 1007.9 |
| 20260506181643 | 65 | 140 | 2.6 | 14.8 | 0.00 | 0.00 | 0.00 | 76 | 1008.0 |
| 20260506181140 | 65 | 131 | 5.2 | 16.5 | 0.00 | 0.00 | 0.00 | 76 | 1008.1 |
| 20260506180637 | 66 | 127 | 15.6 | 23.5 | 0.00 | 0.00 | 0.00 | 75 | 1008.4 |
| 20260506180133 | 66 | 140 | 8.7 | 21.7 | 0.00 | 0.00 | 0.00 | 74 | 1008.3 |
| 20260506175630 | 66 | 147 | 10.4 | 14.8 | 0.00 | 0.00 | 0.00 | 74 | 1008.6 |
| 20260506175126 | 67 | 318 | 14.8 | 21.7 | 0.00 | 0.00 | 0.00 | 73 | 1008.5 |
| 20260506174625 | 67 | 199 | 5.2 | 19.1 | 0.00 | 0.00 | 0.00 | 74 | 1008.8 |
| 20260506174121 | 66 | 189 | 20.0 | 26.9 | 0.00 | 0.00 | 0.00 | 74 | 1008.6 |
| 20260506173619 | 67 | 192 | 11.3 | 24.3 | 0.00 | 0.00 | 0.00 | 73 | 1008.5 |
| 20260506173115 | 67 | 70 | 13.0 | 20.0 | 0.00 | 0.00 | 0.00 | 74 | 1008.7 |
| 20260506172613 | 68 | 147 | 7.8 | 24.3 | 0.00 | 0.00 | 0.00 | 71 | 1008.6 |
| 20260506172109 | 69 | 164 | 9.6 | 20.0 | 0.00 | 0.00 | 0.00 | 71 | 1008.3 |
| 20260506171607 | 67 | 203 | 5.2 | 19.1 | 0.00 | 0.00 | 0.00 | 73 | 1008.4 |
| 20260506171104 | 67 | 242 | 4.3 | 9.6 | 0.00 | 0.00 | 0.00 | 74 | 1008.5 |
| 20260506170601 | 67 | 198 | 9.6 | 21.7 | 0.00 | 0.00 | 0.00 | 73 | 1008.4 |
| 20260506170059 | 67 | 221 | 23.5 | 24.3 | 0.00 | 0.00 | 0.00 | 72 | 1008.9 |
| 20260506165557 | 67 | 212 | 11.3 | 21.7 | 0.00 | 0.00 | 0.00 | 72 | 1008.7 |
| 20260506165053 | 67 | 188 | 7.0 | 21.7 | 0.00 | 0.00 | 0.00 | 72 | 1008.8 |
| 20260506164550 | 67 | 172 | 16.5 | 21.7 | 0.00 | 0.00 | 0.00 | 72 | 1009.0 |
| 20260506164047 | 68 | 119 | 12.2 | 21.7 | 0.00 | 0.00 | 0.00 | 71 | 1009.0 |
| 20260506163543 | 67 | 218 | 7.8 | 15.6 | 0.00 | 0.00 | 0.00 | 71 | 1009.2 |
| 20260506163039 | 67 | 235 | 11.3 | 15.6 | 0.00 | 0.00 | 0.00 | 72 | 1009.1 |
| 20260506162536 | 67 | 202 | 10.4 | 18.2 | 0.00 | 0.00 | 0.00 | 71 | 1009.1 |
| 20260506162033 | 68 | 192 | 8.7 | 13.9 | 0.00 | 0.00 | 0.00 | 71 | 1009.2 |
| 20260506161531 | 68 | 133 | 7.8 | 20.9 | 0.00 | 0.00 | 0.00 | 71 | 1009.3 |
| 20260506161027 | 68 | 216 | 6.1 | 21.7 | 0.00 | 0.00 | 0.00 | 70 | 1009.1 |
| 20260506160525 | 68 | 198 | 6.1 | 13.9 | 0.00 | 0.00 | 0.00 | 72 | 1009.5 |
| 20260506160022 | 68 | 236 | 12.2 | 25.2 | 0.00 | 0.00 | 0.00 | 72 | 1009.3 |
| 20260506155520 | 68 | 186 | 5.2 | 9.6 | 0.00 | 0.00 | 0.00 | 72 | 1009.5 |
| 20260506153651 | 68 | 149 | 7.0 | 9.6 | 0.00 | 0.00 | 0.00 | 72 | 1009.8 |
| 20260506153149 | 67 | 213 | 16.5 | 27.8 | 0.00 | 0.00 | 0.00 | 72 | 1010.1 |
| 20260506152645 | 67 | 116 | 6.1 | 16.5 | 0.00 | 0.00 | 0.00 | 72 | 1010.1 |
| 20260506152143 | 67 | 155 | 11.3 | 13.9 | 0.00 | 0.00 | 0.00 | 73 | 1010.0 |
| 20260506151642 | 67 | 157 | 7.8 | 15.6 | 0.00 | 0.00 | 0.00 | 72 | 1009.9 |
| 20260506151138 | 68 | 158 | 7.8 | 16.5 | 0.00 | 0.00 | 0.00 | 69 | 1010.0 |
| 20260506150635 | 69 | 211 | 7.0 | 13.9 | 0.00 | 0.00 | 0.00 | 69 | 1009.9 |
| 20260506150132 | 69 | 164 | 6.1 | 16.5 | 0.00 | 0.00 | 0.00 | 69 | 1009.9 |
| 20260506145629 | 69 | 131 | 5.2 | 14.8 | 0.00 | 0.00 | 0.00 | 70 | 1010.0 |
| 20260506145125 | 68 | 311 | 0.0 | 14.8 | 0.00 | 0.00 | 0.00 | 70 | 1009.8 |
| 20260506144623 | 68 | 135 | 7.8 | 9.6 | 0.00 | 0.00 | 0.00 | 71 | 1009.6 |
| 20260506144119 | 68 | 206 | 5.2 | 14.8 | 0.00 | 0.00 | 0.00 | 70 | 1009.7 |
| 20260506143617 | 69 | 248 | 5.2 | 13.9 | 0.00 | 0.00 | 0.00 | 69 | 1009.8 |
| 20260506143115 | 69 | 133 | 9.6 | 16.5 | 0.00 | 0.00 | 0.00 | 70 | 1009.7 |
| 20260506142613 | 68 | 166 | 11.3 | 14.8 | 0.00 | 0.00 | 0.00 | 72 | 1009.5 |
| 20260506142111 | 67 | 234 | 10.4 | 21.7 | 0.00 | 0.00 | 0.00 | 71 | 1009.8 |
| 20260506141608 | 67 | 165 | 4.3 | 20.9 | 0.00 | 0.00 | 0.00 | 71 | 1009.9 |
| 20260506141107 | 67 | 141 | 7.0 | 14.8 | 0.00 | 0.00 | 0.00 | 73 | 1009.5 |
| 20260506140603 | 67 | 116 | 7.8 | 18.2 | 0.00 | 0.00 | 0.00 | 73 | 1009.5 |
| 20260506140101 | 67 | 166 | 13.0 | 20.9 | 0.00 | 0.00 | 0.00 | 73 | 1009.8 |
| 20260506135558 | 68 | 157 | 9.6 | 22.6 | 0.00 | 0.00 | 0.00 | 72 | 1010.2 |
| 20260506135054 | 67 | 147 | 4.3 | 7.8 | 0.00 | 0.00 | 0.00 | 74 | 1010.1 |
| 20260506134551 | 66 | 264 | 6.1 | 20.9 | 0.00 | 0.00 | 0.00 | 75 | 1010.4 |
| 20260506134046 | 66 | 131 | 10.4 | 18.2 | 0.00 | 0.00 | 0.00 | 75 | 1010.3 |
| 20260506133544 | 66 | 215 | 6.1 | 11.3 | 0.00 | 0.00 | 0.00 | 75 | 1010.3 |
| 20260506133041 | 66 | 131 | 7.8 | 22.6 | 0.00 | 0.00 | 0.00 | 76 | 1010.4 |
| 20260506132538 | 65 | 126 | 6.1 | 17.4 | 0.00 | 0.00 | 0.00 | 78 | 1010.2 |
| 20260506132035 | 64 | 173 | 4.3 | 17.4 | 0.00 | 0.00 | 0.00 | 78 | 1010.6 |
| 20260506131532 | 64 | 185 | 1.7 | 18.2 | 0.00 | 0.00 | 0.00 | 80 | 1010.3 |
| 20260506131028 | 64 | 291 | 4.3 | 14.8 | 0.00 | 0.00 | 0.00 | 80 | 1010.5 |
| 20260506130525 | 63 | 102 | 3.5 | 13.0 | 0.00 | 0.00 | 0.00 | 81 | 1010.5 |
| 20260506130023 | 63 | 186 | 3.5 | 9.6 | 0.00 | 0.00 | 0.00 | 82 | 1010.1 |
| 20260506125521 | 63 | 156 | 9.6 | 20.0 | 0.00 | 0.00 | 0.00 | 82 | 1010.6 |
| 20260506125019 | 63 | 103 | 7.8 | 10.4 | 0.00 | 0.00 | 0.00 | 83 | 1010.2 |
| 20260506124516 | 62 | 149 | 4.3 | 12.2 | 0.00 | 0.00 | 0.00 | 84 | 1010.4 |
| 20260506124014 | 62 | 164 | 6.1 | 13.9 | 0.00 | 0.00 | 0.00 | 85 | 1010.2 |
| 20260506123512 | 61 | 164 | 5.2 | 12.2 | 0.00 | 0.00 | 0.00 | 85 | 1010.3 |
| 20260506123009 | 61 | 156 | 3.5 | 17.4 | 0.00 | 0.00 | 0.00 | 85 | 1010.1 |
| 20260506122506 | 61 | 166 | 5.2 | 13.0 | 0.00 | 0.00 | 0.00 | 86 | 1010.5 |
| 20260506122004 | 61 | 184 | 3.5 | 11.3 | 0.00 | 0.00 | 0.00 | 87 | 1010.6 |
| 20260506121501 | 60 | 219 | 5.2 | 12.2 | 0.00 | 0.00 | 0.00 | 87 | 1010.8 |
| 20260506120957 | 60 | 142 | 6.1 | 16.5 | 0.00 | 0.00 | 0.00 | 87 | 1010.8 |
| 20260506120455 | 60 | 195 | 8.7 | 18.2 | 0.00 | 0.00 | 0.00 | 87 | 1010.7 |
| 20260506115952 | 60 | 156 | 7.8 | 18.2 | 0.00 | 0.00 | 0.00 | 87 | 1010.5 |
| 20260506115450 | 60 | 198 | 9.6 | 18.2 | 0.00 | 0.00 | 0.00 | 87 | 1010.9 |
| 20260506114948 | 60 | 240 | 11.3 | 16.5 | 0.00 | 0.00 | 0.00 | 88 | 1010.8 |
| 20260506114445 | 60 | 172 | 5.2 | 13.0 | 0.00 | 0.00 | 0.00 | 89 | 1010.9 |
| 20260506113944 | 59 | 171 | 5.2 | 12.2 | 0.00 | 0.00 | 0.00 | 90 | 1010.9 |
| 20260506113442 | 59 | 206 | 12.2 | 18.2 | 0.00 | 0.00 | 0.00 | 90 | 1010.8 |
| 20260506112938 | 59 | 188 | 8.7 | 13.9 | 0.00 | 0.00 | 0.00 | 90 | 1010.8 |
| 20260506112436 | 59 | 155 | 7.0 | 7.0 | 0.00 | 0.00 | 0.00 | 91 | 1011.0 |
| 20260506111932 | 59 | 161 | 1.7 | 10.4 | 0.00 | 0.00 | 0.00 | 91 | 1010.8 |
| 20260506111431 | 59 | 200 | 0.0 | 15.6 | 0.00 | 0.00 | 0.00 | 91 | 1010.9 |
| 20260506110927 | 59 | 145 | 7.8 | 12.2 | 0.00 | 0.00 | 0.00 | 91 | 1010.8 |
| 20260506110425 | 59 | 128 | 1.7 | 13.0 | 0.00 | 0.00 | 0.00 | 91 | 1010.8 |
| 20260506105921 | 59 | 225 | 7.8 | 12.2 | 0.00 | 0.00 | 0.00 | 91 | 1010.9 |
| 20260506105418 | 59 | 169 | 1.7 | 11.3 | 0.00 | 0.00 | 0.00 | 91 | 1011.0 |
| 20260506104915 | 59 | 163 | 7.0 | 10.4 | 0.00 | 0.00 | 0.00 | 91 | 1010.9 |
| 20260506104413 | 59 | 131 | 8.7 | 19.1 | 0.00 | 0.00 | 0.00 | 91 | 1011.0 |
| 20260506103911 | 58 | 201 | 9.6 | 14.8 | 0.00 | 0.00 | 0.00 | 92 | 1010.9 |
| 20260506103408 | 58 | 174 | 7.0 | 13.0 | 0.00 | 0.00 | 0.00 | 92 | 1011.0 |
| 20260506102905 | 58 | 128 | 9.6 | 13.9 | 0.00 | 0.00 | 0.00 | 92 | 1010.8 |
| 20260506102403 | 58 | 120 | 7.8 | 16.5 | 0.00 | 0.00 | 0.00 | 92 | 1010.9 |
| 20260506101900 | 58 | 135 | 4.3 | 10.4 | 0.00 | 0.00 | 0.00 | 92 | 1010.7 |
| 20260506101356 | 58 | 193 | 5.2 | 12.2 | 0.00 | 0.00 | 0.00 | 92 | 1010.6 |
| 20260506100854 | 58 | 125 | 7.8 | 7.8 | 0.00 | 0.00 | 0.00 | 92 | 1010.6 |
| 20260506100352 | 58 | 124 | 3.5 | 14.8 | 0.00 | 0.00 | 0.00 | 92 | 1010.7 |
| 20260506095850 | 58 | 169 | 5.2 | 7.8 | 0.00 | 0.00 | 0.00 | 92 | 1010.6 |
| 20260506095347 | 58 | 295 | 6.1 | 11.3 | 0.00 | 0.00 | 0.00 | 92 | 1010.6 |
| 20260506094844 | 58 | 229 | 7.8 | 20.0 | 0.00 | 0.00 | 0.00 | 92 | 1010.6 |
| 20260506094343 | 58 | 219 | 9.6 | 13.0 | 0.00 | 0.00 | 0.00 | 92 | 1010.8 |
| 20260506093840 | 58 | 173 | 7.8 | 9.6 | 0.00 | 0.00 | 0.00 | 91 | 1010.7 |
| 20260506093337 | 58 | 135 | 5.2 | 12.2 | 0.00 | 0.00 | 0.00 | 92 | 1010.6 |
| 20260506092835 | 58 | 168 | 3.5 | 11.3 | 0.00 | 0.00 | 0.00 | 91 | 1010.6 |
| 20260506092333 | 58 | 138 | 5.2 | 8.7 | 0.00 | 0.00 | 0.00 | 91 | 1010.6 |
| 20260506091829 | 58 | 117 | 5.2 | 12.2 | 0.00 | 0.00 | 0.00 | 91 | 1010.6 |
| 20260506091327 | 58 | 129 | 6.1 | 12.2 | 0.00 | 0.00 | 0.00 | 91 | 1010.5 |
| 20260506090825 | 58 | 43 | 4.3 | 13.0 | 0.00 | 0.00 | 0.00 | 91 | 1010.5 |
| 20260506090322 | 58 | 195 | 3.5 | 7.8 | 0.00 | 0.00 | 0.00 | 91 | 1010.7 |
| 20260506085818 | 58 | 107 | 4.3 | 9.6 | 0.00 | 0.00 | 0.00 | 90 | 1010.6 |
| 20260506085315 | 58 | 139 | 5.2 | 13.0 | 0.00 | 0.00 | 0.00 | 90 | 1010.9 |
| 20260506084812 | 58 | 154 | 3.5 | 7.8 | 0.00 | 0.00 | 0.00 | 90 | 1010.7 |
| 20260506084308 | 58 | 156 | 6.1 | 10.4 | 0.00 | 0.00 | 0.00 | 90 | 1010.7 |
| 20260506083805 | 59 | 82 | 0.0 | 9.6 | 0.00 | 0.00 | 0.00 | 90 | 1010.8 |
| 20260506083302 | 59 | 122 | 7.0 | 7.8 | 0.00 | 0.00 | 0.00 | 90 | 1010.8 |
| 20260506082800 | 59 | 166 | 7.0 | 11.3 | 0.00 | 0.00 | 0.00 | 90 | 1010.9 |
| 20260506082255 | 59 | 133 | 6.1 | 11.3 | 0.00 | 0.00 | 0.00 | 89 | 1010.7 |
| 20260506081753 | 59 | 167 | 5.2 | 10.4 | 0.00 | 0.00 | 0.00 | 89 | 1010.6 |
| 20260506081250 | 59 | 75 | 5.2 | 16.5 | 0.00 | 0.00 | 0.00 | 89 | 1010.7 |
| 20260506080748 | 59 | 108 | 3.5 | 16.5 | 0.00 | 0.00 | 0.00 | 88 | 1010.7 |
| 20260506080244 | 59 | 182 | 10.4 | 15.6 | 0.00 | 0.00 | 0.00 | 88 | 1010.8 |
| 20260506073228 | 59 | 215 | 6.1 | 9.6 | 0.00 | 0.00 | 0.00 | 88 | 1010.7 |
| 20260506072725 | 59 | 133 | 10.4 | 13.0 | 0.00 | 0.00 | 0.00 | 88 | 1010.6 |
| 20260506072223 | 59 | 178 | 5.2 | 16.5 | 0.00 | 0.00 | 0.00 | 88 | 1010.5 |